map of VCP home
Great Circle Mapper logo
VCP - Airport
Location
City:  Campinas, São Paulo, Brazil
Near (Alt.):São Paulo
Name:Viracopos
Old (Alt.):Campinas International Airport
ICAO / IATA:SBKP / VCP

Details
Type:Airport (Aerodrome, Airfield)
Use:Public/Civil, International (customs port of entry)
Latitude:23°00'27"S (-23.007382)
Longitude:47°08'04"W (-47.134521)
Datum:WGS 1984
Elevation:2170 ft (661 m)
Runways:1
Longest:10630 × 148 ft (3240 × 45 m), paved

Time
Time Zone:UTC-3 (DST-2)
Local Time:

Weather
METAR:SBKP 251000Z 35007KT 6000 FEW015 BKN100 21/17 Q1017
TAF:SBKP 250904Z 2512/2612 03008KT 9999 SCT040 TX30/2518Z TN20/2609Z
TEMPO 2512/2516 31008KT 7000 SHRA BKN035
TEMPO 2516/2601 13010KT 8000 TSRA BKN030 FEW045CB
BECMG 2601/2603 12005KT 8000 NSC PROB30 2606/2612 13008KT 4000 BR SCT007
RMK PGO

Related Locations
Nearby:
Farthest:MMD: 12213 mi / 19655 km
Minami Daito Jima, Okinawa, JP

Find:

   beyond  
but within

Other Information
Maps:
NOTAMs:
Links:
Sources:

  
flag of Brazil
flag of São Paulo
  

Sectional Chart

Flight Planning
at skyvector.com

Satellite Image

Google Maps Satellite View

 

Copyright © 2004-2014 Karl L. Swartz. All rights reserved.
The Great Circle Mapper name and logo are trademarks of the Great Circle Mapper.
All other trademarks mentioned herein belong to their respective owners.
Please see credits for attibutions and further copyright information.

  Follow gcmap on Facebook Follow gcmap on Twitter

hCard Microformat

Geo Microformat